GFSGL_700_rhum_105.txt.gz
RH
58 41 44 55 66 67 62 59 58 39 33 36 35 45 47 54 23 22 33 63 74 88 88 100 99 99 98 99 98 100 100 100 99 83 49 48 62 49 36 32 35 40 44
64 64 59 58 65 68 70 70 51 41 36 39 48 53 59 24 23 40 68 82 100 98 98 99 100 100 100 95 100 98 100 99 100 99 97 78 88 86 87 48 45 58 69
75 73 72 72 71 79 72 74 51 51 57 58 58 64 30 24 44 73 87 89 94 88 99 100 100 99 100 99 99 100 100 100 100 100 98 92 100 100 96 94 96 97 96
100 99 95 100 93 88 85 87 64 64 61 60 62 42 27 42 73 71 84 89 94 93 99 100 100 99 98 100 98 100 100 100 100 100 98 98 99 100 98 100 99 99 99
83 75 69 82 88 97 100 82 67 61 61 59 60 30 36 55 67 79 81 88 99 100 99 99 100 100 100 100 100 100 100 100 100 100 99 100 99 98 100 99 100 99 99
98 100 99 95 94 99 99 80 70 66 59 63 35 34 41 69 84 98 93 98 100 99 99 99 100 99 100 100 100 100 100 100 100 100 100 100 100 99 100 99 99 99 99
100 99 100 98 100 99 96 80 71 76 63 47 34 36 45 93 91 95 98 93 98 100 100 99 99 99 100 100 100 100 100 100 99 100 100 100 100 100 99 99 99 99 100
100 99 92 95 100 98 100 93 78 70 72 68 51 50 77 84 100 100 100 96 95 100 100 98 100 100 99 99 100 100 100 100 100 100 100 99 100 100 99 100 100 100 100
99 99 99 100 99 99 99 100 100 96 89 90 87 91 82 98 95 89 96 98 99 99 99 100 100 100 100 100 100 100 99 99 100 100 99 100 100 99 100 100 99 100 99
100 99 92 100 100 99 100 100 97 100 99 100 100 92 98 98 96 100 93 100 94 99 98 99 100 99 99 100 100 100 99 99 100 99 100 100 100 100 100 100 100 99 99
90 97 98 100 99 100 100 100 100 100 100 98 100 99 95 99 95 98 99 100 92 76 88 92 98 99 100 100 99 99 99 99 99 100 99 99 99 100 99 100 100 100 100
86 89 91 95 97 97 98 98 99 99 99 100 100 100 100 100 91 100 96 94 100 100 100 90 86 99 98 94 98 99 99 98 98 100 100 100 99 89 98 100 99 99 99
81 78 78 84 88 91 94 95 97 98 95 98 98 100 100 97 96 100 91 97 83 93 97 100 100 99 100 100 100 95 99 100 99 100 100 100 100 100 100 100 99 99 99
82 82 83 83 83 85 86 89 92 95 97 97 96 97 98 99 100 97 100 99 100 99 100 99 99 100 100 100 100 99 99 99 100 99 99 99 98 99 98 98 97 97 96
48 54 63 74 81 84 88 90 93 96 95 94 96 96 96 96 96 97 96 97 98 97 97 99 100 99 100 100 99 98 98 98 97 97 97 97 97 96 96 96 95 95 79
10 10 11 14 20 32 48 63 79 91 94 95 96 96 96 93 95 96 96 96 97 96 97 96 96 96 96 96 96 96 96 97 96 96 96 96 96 95 95 94 86 64 57
13 13 13 12 12 10 10 10 13 26 50 73 92 96 96 96 95 96 96 95 96 96 96 96 96 96 96 96 96 96 96 96 96 96 96 95 95 95 94 92 92 94 96
10 10 10 10 11 12 12 12 12 11 11 14 21 34 56 76 90 95 96 96 95 95 95 94 94 95 95 95 95 96 95 95 95 95 95 96 96 96 96 95 94 94 90
5 5 4 4 4 5 5 6 7 9 10 10 11 14 19 26 29 38 48 58 69 82 91 94 94 94 93 93 93 93 92 91 88 84 80 76 71 59 49 40 34 26 24
4 4 4 4 3 4 4 4 4 4 4 5 6 8 10 13 20 29 36 41 45 46 46 46 45 44 43 42 40 38 36 34 34 33 31 29 28 26 25 26 25 24 21
4 4 3 3 4 4 5 5 5 6 6 6 7 7 8 10 14 20 26 29 32 34 36 38 38 38 37 35 34 31 29 27 26 26 26 26 25 24 22 19 16 13 12
5 5 6 6 6 6 7 8 8 8 7 7 7 8 9 11 14 18 23 26 28 30 30 30 30 30 29 28 28 28 27 26 26 24 22 20 18 16 14 12 11 11 10
7 8 10 10 11 12 11 11 10 10 9 8 8 8 10 12 13 16 19 24 28 29 29 29 28 27 26 26 25 24 22 20 18 16 15 14 13 13 12 12 11 11 11
11 13 14 16 16 16 15 14 13 12 11 10 11 10 11 12 14 16 18 20 20 20 21 22 22 21 20 19 18 16 16 15 15 15 14 14 14 13 13 12 12 12 13
14 16 17 18 18 18 17 17 16 15 14 14 15 17 17 17 16 18 19 21 22 22 21 20 19 18 18 18 17 17 17 16 16 16 15 15 15 15 14 14 14 15 16
15 16 17 17 17 17 18 20 20 20 21 20 20 20 20 21 22 22 22 22 23 23 22 22 21 20 20 20 20 19 19 18 18 18 18 18 17 18 17 17 18 18 18

GFSGL_700_rhum_108.txt.gz
RH
49 47 48 43 43 46 38 39 51 64 66 55 53 46 39 44 44 54 63 61 34 24 27 46 61 71 83 77 95 92 100 100 99 100 100 100 100 75 38 27 28 28 26
61 61 60 51 43 41 46 56 65 68 60 60 55 42 45 48 54 64 61 31 24 32 56 73 84 87 98 92 99 99 98 99 100 100 100 99 94 92 47 38 38 37 36
73 69 68 68 66 58 67 71 70 70 75 68 74 57 55 59 59 62 30 25 35 55 68 81 100 100 99 98 100 99 98 100 100 100 100 99 100 92 63 55 54 46 44
80 84 82 83 79 77 82 76 84 95 93 88 73 70 66 68 62 33 26 31 61 68 74 80 97 98 94 100 100 98 99 99 100 100 100 100 100 100 98 88 82 66 51
75 74 87 89 90 90 97 98 99 99 86 85 72 66 66 62 42 30 32 60 77 75 70 86 96 100 98 100 99 98 99 100 100 100 100 100 100 99 97 93 95 82 82
97 97 94 100 99 96 99 100 100 85 93 76 75 74 57 50 39 40 46 74 71 82 78 93 100 100 98 99 100 100 98 100 99 100 100 100 99 100 99 100 99 98 99
99 100 100 100 97 100 98 87 97 93 89 77 75 62 55 45 47 62 79 82 84 93 92 99 98 99 100 100 100 100 100 100 100 99 100 100 100 99 99 100 99 99 99
100 100 88 99 98 100 97 100 99 98 90 78 73 77 70 50 68 78 97 98 97 88 97 99 98 99 100 100 100 100 100 100 100 98 100 100 100 100 100 100 99 99 100
100 92 100 100 100 99 100 99 99 100 99 99 92 84 87 81 80 85 99 93 94 90 93 99 100 99 100 100 100 98 100 100 100 100 100 100 100 100 100 100 99 100 99
100 100 100 100 99 100 98 100 99 100 100 100 99 100 99 98 100 100 99 99 100 99 94 84 100 100 99 99 99 99 100 100 100 100 100 99 100 99 100 99 99 99 99
80 80 82 91 92 99 97 99 100 100 100 100 100 99 100 99 99 100 100 100 96 99 99 85 93 100 100 99 99 98 99 99 99 99 99 99 99 99 99 99 99 99 99
82 79 76 76 76 79 89 97 96 98 98 98 99 96 99 100 100 98 99 96 85 95 98 99 99 100 97 99 100 100 100 97 99 94 99 99 99 99 100 99 99 99 99
70 75 79 81 80 79 80 78 76 78 89 96 99 97 97 97 99 99 100 99 100 98 100 100 99 99 100 100 100 100 91 89 98 99 100 99 99 99 99 100 100 100 99
17 20 26 33 45 60 72 78 82 84 82 78 82 89 94 97 95 95 98 98 99 99 100 100 100 100 100 94 98 100 100 99 99 100 100 100 100 99 99 100 100 100 100
12 11 11 10 10 10 9 10 17 37 66 80 84 85 88 92 92 94 95 95 95 96 95 97 98 98 98 99 100 100 100 100 99 99 100 99 99 99 99 98 97 97 96
10 10 10 10 10 10 11 12 12 11 11 11 14 41 72 86 92 94 95 95 96 95 95 95 95 95 96 96 96 96 96 97 96 96 96 97 96 96 96 96 96 96 95
6 5 5 5 5 4 5 5 6 7 10 11 12 12 12 17 36 54 88 94 95 95 95 96 96 96 96 95 95 96 96 96 96 96 96 96 96 96 96 96 96 96 96
5 5 5 5 4 4 4 4 4 4 4 4 5 7 9 11 13 17 21 44 62 80 93 94 95 95 95 95 96 96 96 95 95 96 95 95 95 95 95 95 95 95 96
6 6 6 5 5 4 4 3 3 3 3 3 3 4 4 4 6 9 13 20 28 32 39 44 51 61 75 86 93 94 95 96 96 96 95 95 95 95 94 92 84 73 55
6 6 5 5 4 4 4 4 4 4 4 4 4 4 4 5 5 6 9 14 20 27 35 41 43 43 42 41 39 37 36 34 34 34 34 33 31 29 28 25 24 25 26
6 5 5 5 4 5 5 5 5 5 6 6 7 7 7 7 7 7 7 9 14 19 23 27 28 30 32 34 34 32 31 29 26 25 24 24 25 26 27 26 25 23 19
6 6 6 6 6 7 8 8 9 10 10 11 12 11 10 9 8 8 9 10 12 16 21 25 26 27 28 28 28 27 27 26 26 26 26 26 24 23 21 18 16 13 12
6 7 7 8 9 10 12 14 15 16 16 16 15 13 12 10 10 9 10 12 15 17 18 21 25 27 28 28 27 26 26 25 24 22 21 19 17 15 14 13 13 12 12
8 8 9 10 11 13 14 16 17 18 18 17 17 16 16 15 15 14 14 14 16 19 21 22 21 20 20 20 19 19 18 17 17 16 16 15 15 15 14 14 13 13 13
9 10 10 10 11 13 14 16 16 16 17 19 21 21 21 20 21 20 20 20 21 22 22 22 22 22 21 20 19 19 19 18 18 18 17 17 16 16 16 15 15 15 15
11 12 13 14 15 16 16 17 18 19 19 20 24 26 26 26 26 25 24 24 24 25 25 24 24 23 23 22 22 22 21 21 20 20 20 19 19 18 18 18 18 18 18

GFSGL_700_rhum_114.txt.gz
RH
58 36 22 21 23 22 27 26 29 32 44 35 35 35 40 48 49 60 64 68 68 59 49 51 57 49 42 40 52 58 35 34 65 71 97 82 71 99 100 100 100 97 97
72 61 56 49 43 48 46 35 38 44 44 41 38 40 42 45 49 74 72 87 66 58 54 76 51 47 49 60 62 28 34 64 88 90 79 82 92 98 99 98 100 99 100
86 80 72 58 65 56 51 51 50 61 60 52 50 54 61 64 85 80 93 83 70 60 94 55 63 86 64 37 34 63 84 96 86 82 86 88 93 99 100 99 100 100 100
98 89 91 92 75 70 56 51 48 53 68 64 66 67 63 82 85 86 77 71 57 62 71 76 76 59 36 39 58 66 73 88 100 96 99 97 99 92 100 100 99 100 100
100 100 99 98 82 74 70 65 63 67 75 73 64 62 70 74 80 81 78 96 99 92 81 73 53 38 36 54 68 65 83 93 94 96 99 92 99 100 98 99 100 100 99
99 99 96 97 97 81 71 79 76 88 87 80 87 90 94 92 95 97 98 91 69 80 72 54 40 34 42 64 64 65 68 85 100 93 97 99 92 96 100 100 100 98 98
99 98 99 100 100 100 100 99 99 99 99 96 96 99 100 100 99 100 100 96 95 70 56 50 41 50 55 49 60 72 69 70 94 100 100 98 98 100 100 100 100 98 100
100 99 99 100 100 99 99 100 100 100 100 100 99 99 99 99 98 99 100 97 79 73 64 56 56 54 51 72 75 76 72 78 97 100 100 100 100 100 98 100 99 100 100
86 90 95 96 98 99 98 98 99 98 99 98 99 99 98 100 100 100 100 94 80 82 90 81 58 66 80 88 85 79 73 71 74 98 99 100 100 100 99 100 100 100 100
69 71 72 75 85 92 96 98 99 98 98 98 99 99 99 100 100 100 100 100 100 100 96 90 75 76 93 88 89 80 73 89 86 91 96 94 99 100 100 100 100 100 100
12 17 28 40 51 58 67 69 76 85 90 94 97 98 98 98 99 99 99 100 100 100 100 97 99 99 94 97 94 88 82 95 96 88 99 98 100 100 99 100 99 100 100
10 10 9 9 9 8 9 10 14 24 40 54 66 71 73 80 95 97 96 98 99 99 99 100 100 100 100 100 92 99 96 100 99 98 98 98 99 98 98 99 100 100 99
6 6 6 6 6 6 6 6 6 7 7 7 7 8 15 35 56 65 68 70 78 84 91 95 96 98 99 100 98 97 96 100 100 99 100 100 100 100 100 99 99 99 99
7 7 7 7 7 7 6 6 6 6 6 6 5 5 5 7 8 9 17 44 62 68 74 79 86 90 92 94 98 99 99 100 99 99 100 100 99 100 99 99 99 100 100
10 10 10 9 9 9 8 8 8 7 7 7 6 6 5 5 4 4 6 9 10 13 32 62 72 76 82 85 87 92 94 96 98 98 98 98 99 100 100 100 100 99 99
13 12 12 11 11 11 10 10 10 9 9 8 8 7 6 6 5 5 4 4 4 4 8 11 14 41 75 79 81 90 93 93 95 96 95 95 95 96 97 97 96 96 96
15 15 14 14 14 13 13 12 12 12 11 11 10 9 8 8 7 6 5 4 4 3 3 4 7 13 19 40 79 90 91 94 96 94 95 95 95 96 96 95 95 95 95
19 18 18 18 17 17 16 16 15 14 13 12 11 10 10 9 8 7 6 5 4 3 3 3 4 5 10 16 23 41 80 95 96 96 96 95 95 95 95 96 96 96 96
22 22 22 21 20 19 17 15 13 11 10 9 8 8 7 7 7 6 5 5 4 4 4 4 4 5 6 10 17 27 33 38 53 84 97 96 96 96 95 95 95 96 96
22 24 23 21 18 14 11 10 8 7 7 6 6 6 6 6 6 6 7 7 7 7 7 7 6 7 8 12 16 20 27 32 35 36 36 36 40 52 73 90 95 95 95
25 24 21 17 13 10 8 7 6 6 6 7 7 8 8 8 8 8 10 12 13 13 11 10 9 10 12 16 19 22 24 24 24 26 27 27 28 28 27 26 25 24 24
24 19 14 9 7 6 7 7 8 8 10 10 11 12 12 12 12 13 15 16 17 16 14 13 12 12 15 19 23 24 24 23 23 23 22 22 22 22 22 22 23 24 23
17 11 8 7 7 7 8 9 10 12 13 14 15 16 16 16 15 14 15 17 18 19 18 18 18 17 18 20 21 22 24 24 23 22 22 22 21 21 21 21 20 20 18
10 8 7 7 8 10 11 12 14 15 16 18 19 20 21 22 22 19 18 19 21 23 23 23 22 22 22 22 22 22 21 21 20 20 20 20 19 19 18 17 16 16 15
7 8 9 11 12 14 15 16 18 19 21 22 24 25 28 30 32 31 24 22 24 26 28 28 27 26 25 25 24 24 23 23 22 21 20 20 19 19 18 18 17 17 16
9 11 13 14 15 16 18 21 25 27 28 29 31 34 38 43 48 48 45 35 28 29 31 32 31 30 28 28 27 26 26 25 24 24 23 22 22 21 21 20 20 20 19

GFSGL_700_rhum_117.txt.gz
RH
91 89 64 50 39 31 21 28 30 36 44 48 55 26 29 29 29 30 42 50 54 57 78 72 63 63 65 54 50 91 65 62 54 50 56 54 69 74 83 99 90 99 99
79 83 60 45 23 24 26 36 36 54 72 68 59 58 35 32 32 32 45 51 58 63 84 76 69 70 69 55 73 93 63 54 79 51 30 48 70 80 86 83 84 98 99
100 75 65 46 29 25 33 50 65 62 85 71 70 77 60 39 38 43 47 57 58 76 85 83 77 78 71 78 90 88 66 74 69 75 57 69 80 80 81 91 98 98 99
99 98 82 61 54 52 47 63 78 68 53 59 65 63 49 35 35 37 44 59 66 74 84 88 86 98 84 89 79 73 66 49 50 69 63 53 64 75 99 92 90 97 98
99 99 93 85 72 70 79 65 64 62 58 64 69 66 49 46 51 58 62 66 77 88 86 78 94 79 69 93 84 66 47 46 62 62 56 66 66 65 89 93 100 96 98
99 99 99 100 98 88 88 91 77 71 68 68 77 84 87 90 88 84 73 83 92 92 87 82 82 100 97 83 62 49 52 59 68 65 62 60 65 91 98 99 100 100 99
99 99 99 99 98 100 99 100 96 92 84 76 81 78 86 86 98 99 98 98 97 91 96 97 90 70 77 68 68 67 72 69 60 65 70 70 69 100 100 100 100 99 98
96 98 93 94 98 99 98 99 100 100 100 99 100 100 99 100 100 100 100 99 99 100 100 99 100 95 92 81 87 92 74 79 76 73 66 64 78 95 100 99 99 100 100
68 71 78 91 96 96 98 98 98 98 99 98 99 100 99 100 98 100 97 89 98 100 99 94 100 100 99 84 90 89 82 85 80 78 72 73 75 84 83 100 100 100 100
9 11 18 29 44 48 61 91 96 98 99 94 95 98 98 99 100 100 94 100 99 99 99 100 95 91 100 98 90 87 85 88 84 82 80 79 88 85 92 99 99 100 100
6 6 6 7 6 7 7 8 10 11 15 31 63 89 92 96 98 98 98 97 99 99 100 99 100 100 99 99 100 99 94 93 88 78 83 95 94 90 84 80 97 100 100
7 7 7 7 7 6 6 6 6 6 6 6 6 7 10 17 30 49 64 88 94 96 97 97 98 98 99 99 100 100 100 99 97 93 92 97 99 98 86 88 90 98 99
9 9 9 9 8 8 8 8 7 7 7 6 6 6 5 5 5 5 6 7 9 25 47 55 56 65 77 87 88 93 96 99 99 99 100 99 94 99 98 98 99 97 99
12 12 11 11 10 10 10 10 10 10 9 9 9 8 8 7 6 5 5 4 4 4 5 7 8 24 47 56 60 71 79 91 97 99 99 100 100 99 98 99 100 99 99
14 14 13 13 13 12 12 12 12 11 11 11 11 11 11 10 10 9 9 8 7 6 5 4 4 5 6 8 21 53 67 71 78 84 92 95 93 92 94 97 98 99 98
16 16 15 15 15 15 15 14 14 14 13 13 12 12 12 11 11 10 10 10 10 9 8 7 6 5 4 4 6 10 20 54 74 79 84 86 90 90 91 91 95 95 96
15 15 16 17 16 17 17 17 16 15 14 14 13 11 11 10 9 9 8 8 8 8 8 8 7 6 5 4 4 5 10 20 48 79 87 90 90 91 92 92 94 95 94
15 16 16 16 16 17 17 16 15 14 13 11 9 8 7 6 6 5 5 5 6 6 7 7 7 6 5 4 4 5 7 13 21 40 80 95 95 97 97 96 96 97 96
17 19 20 20 19 17 15 13 11 9 7 6 5 4 4 4 4 4 4 4 4 4 5 6 6 6 6 5 5 6 8 12 19 27 32 50 91 100 100 100 100 97 97
19 21 22 20 17 14 11 8 6 5 5 5 5 6 6 6 6 6 6 6 6 6 7 8 9 10 10 9 9 10 12 15 20 25 31 32 32 34 55 92 98 98 98
22 23 22 18 14 10 7 6 5 6 6 7 8 8 9 9 10 10 9 9 9 9 9 11 13 14 14 12 11 12 15 19 21 22 22 24 27 28 27 28 28 29 33
24 24 20 14 10 6 5 5 6 7 8 9 11 12 13 13 14 14 14 14 14 13 12 13 15 17 17 16 14 14 15 19 22 23 22 22 20 19 19 19 19 20 20
24 20 14 9 6 6 6 7 9 11 13 14 14 15 16 17 18 19 20 20 20 19 16 16 17 19 19 19 19 18 18 20 21 23 24 23 21 20 20 20 20 20 20
20 13 8 6 6 7 10 12 14 15 15 14 13 13 15 20 24 26 27 27 29 29 24 21 22 24 24 23 22 22 22 22 22 22 21 21 21 21 20 20 19 19 18
12 8 7 7 9 13 15 16 16 14 13 12 12 14 18 25 34 39 40 44 46 46 40 30 26 28 30 29 27 26 26 25 24 24 23 22 21 21 20 19 19 18 18
8 7 8 12 15 16 17 16 14 13 12 14 17 22 29 36 45 56 60 62 66 68 65 54 38 33 35 34 32 30 29 28 27 26 25 25 24 23 23 22 22 21 21

GFSGL_700_rhum_120.txt.gz
RH
87 71 61 58 58 69 51 35 38 37 33 23 34 38 39 83 67 45 28 26 26 28 46 67 50 46 58 75 69 69 82 70 70 51 66 76 77 60 54 64 65 84 87
98 97 94 85 72 51 36 37 38 46 41 33 44 32 41 78 89 50 26 25 28 29 34 59 49 53 61 71 76 88 94 85 72 47 63 66 71 89 73 66 78 76 81
99 88 92 100 78 38 30 35 41 35 28 42 49 74 91 86 73 43 30 36 29 33 41 72 57 58 73 82 82 76 85 91 68 83 57 64 74 60 84 88 64 84 80
98 98 100 98 96 90 57 42 47 48 51 62 63 68 80 88 84 62 66 50 33 41 67 70 66 65 67 87 88 90 77 86 77 77 68 70 60 45 93 98 88 65 75
97 97 97 100 100 100 76 58 49 47 62 91 96 100 100 98 96 82 63 56 48 70 63 65 69 63 66 84 90 88 83 100 84 78 98 57 57 73 70 70 68 77 88
98 98 98 98 99 98 87 88 87 67 87 100 98 85 79 100 95 99 75 92 97 96 83 73 66 72 79 97 100 88 98 98 98 97 68 66 69 68 63 61 70 68 77
98 98 97 97 98 99 99 100 100 100 100 100 100 100 99 99 99 99 99 98 100 99 95 72 71 95 100 97 98 100 97 100 86 74 70 73 72 65 73 65 66 65 93
54 77 96 97 98 97 97 99 96 99 100 100 100 100 100 100 98 100 100 100 100 98 93 100 100 99 99 100 98 94 96 89 92 81 71 73 71 74 72 72 72 76 86
7 8 8 9 14 28 72 93 91 97 98 98 98 98 99 100 100 98 97 99 99 99 99 100 99 100 98 100 100 100 100 99 89 87 88 80 81 78 75 75 71 70 79
6 6 6 6 6 6 6 6 7 8 11 32 74 86 97 94 98 98 98 95 98 100 96 99 86 98 100 100 99 94 100 100 98 95 98 96 92 87 84 81 85 88 84
9 9 8 8 8 8 7 7 7 6 6 6 5 6 6 10 10 27 62 81 95 96 98 98 95 98 98 99 99 99 100 100 100 99 100 100 100 97 92 87 86 88 85
11 11 11 11 10 10 10 10 10 9 9 9 8 8 7 7 6 6 5 5 5 6 7 13 32 49 76 94 97 97 98 98 99 99 100 99 99 92 93 96 86 72 77
14 14 14 14 13 13 13 12 12 12 11 11 11 10 10 10 9 9 9 8 7 6 6 5 5 5 5 7 15 44 57 60 80 94 98 98 99 99 100 100 100 97 86
15 14 13 13 14 13 13 13 13 12 12 12 12 12 11 11 11 10 10 9 9 9 8 8 8 7 6 5 5 5 7 12 28 54 60 66 76 87 90 98 99 99 100
11 11 11 11 10 10 11 11 11 12 12 12 12 12 12 11 10 10 10 9 9 8 8 8 8 8 8 8 7 6 5 5 7 11 24 44 60 68 75 82 84 89 94
14 14 14 14 14 14 13 13 12 12 13 13 13 12 11 9 9 8 7 6 6 6 5 5 6 6 7 7 8 7 6 5 5 5 9 17 38 63 73 76 78 80 82
14 14 14 15 15 15 15 14 14 14 13 12 9 8 7 6 5 4 4 4 3 3 3 3 3 3 4 5 6 6 6 6 5 5 6 13 30 57 75 84 87 87 87
14 16 17 18 17 16 16 15 14 13 11 8 6 4 4 3 3 3 3 3 3 3 3 3 3 3 4 4 5 6 6 6 6 6 9 14 22 45 74 93 97 98 97
13 15 18 21 21 19 16 14 12 9 6 4 4 5 6 6 6 6 6 6 6 6 6 6 5 5 5 6 7 8 8 8 8 9 11 17 24 28 41 85 100 100 100
13 16 20 24 23 19 15 12 8 6 5 5 7 8 9 10 10 10 10 10 10 9 9 8 8 7 8 9 10 12 13 12 11 11 13 18 22 26 28 28 51 100 100
14 18 23 25 22 16 12 7 6 5 7 9 10 11 11 11 11 10 10 10 11 11 11 12 11 10 11 11 12 14 16 15 14 14 17 20 21 21 22 24 24 23 24
16 22 26 24 18 11 7 5 7 9 10 12 12 12 12 11 10 10 10 10 11 12 14 16 16 17 16 15 15 17 19 19 18 18 18 20 23 22 21 20 19 19 19
20 26 24 17 11 7 6 7 10 12 12 13 13 12 11 10 10 10 11 12 13 21 25 24 24 23 24 21 20 22 24 23 22 22 21 21 22 23 23 22 20 20 19
24 24 17 10 7 7 9 12 14 14 14 13 12 11 10 10 12 13 16 19 21 26 32 38 40 40 38 30 26 27 29 28 27 26 24 23 23 22 22 22 22 21 20
24 16 10 7 8 10 13 15 15 15 14 13 12 12 13 15 18 21 23 26 29 34 46 54 53 59 63 51 35 35 34 33 32 30 28 26 25 24 23 22 21 20 20
17 10 8 9 12 15 16 17 16 15 14 14 14 14 16 20 25 33 40 37 36 41 58 77 82 80 83 79 57 42 40 38 36 34 32 30 29 27 26 26 24 23 22